NANOSATC-BR1

Last updated on Sun Jun 21 2026 00:03:50 GMT+0000 (Coordinated Universal Time)

1 40024U 14033Q 26171.34159919 .00014200 00000+0 46858-3 0 9999 2 40024 98.0721 204.0092 0004646 155.2412 204.9051 15.31541409654465
UTC large
Height (km)
Speed (km/s)
/
Latitude / Longitude
Inclination (degrees)
Orbital Period (minutes)
Azimuth
Elevation
Range (km)
Doppler Factor

Next 0 passes for location: London (51.5072 / 0.1276)

No passes found over London.
NANOSATC-BR1